Zurück zum Katalog

KONDOR FKA 2

AktivMilitärSSO
NORAD 62138·PAYLOAD·🇷🇺 Russia

Gestartet Nov 29, 2024 von Vostochny Cosmodrome

Loading…

Nächste Überflüge (nächste 24 Stunden)

TLE

AktuellSource: Space-Track

Epoche: Sep 14, 2026, 20:35 UTC

1 62138U 24223A   26257.85787051  .00002933  00000-0  14049-3 0  9994
2 62138  97.4428 100.0093 0001769  88.6581 271.4857 15.19715420 99320

Verfolge KONDOR FKA 2 in Echtzeit mit AllMySat

Download on the App Store